Погода в Энурмино

Россия / Чукотский автономный округ     66°57′13″N   171°51′52″W
В апреле 2022 года жителям России запретили посещать сайт meteo.paraplan.net по решению Генеральной прокуратуры. Аудитория сайта уменьшилась в 10 раз. Владельцы сайта не видят смысла в поддержке погодного сервера в таких условиях. Сайт будет закрыт в октябре.
темп.,
°C
ветер,
м/с
пор.,
м/с
влажн.,
%
обл.,
%
осадки,
мм/ч
давл.,
гПа
погр.,
м
26 сентября, пн
пн2600:00+3ссз6787100 0.9 1011466
03:00+4ссз7883100 0.3 1011423
06:00+4с7985100 0.6 1011340
09:00+4с6888100 0.2 1011299
12:00+3ссв6996100 2.4 1012530
15:00+4ссв81091100 3.9 1011545
18:00+4св81092100 4.2 1011312
21:00+4ссв6893100 0.0 1011250
27 сентября, вт
вт2700:00+4ссв5690100 0.0 1010183
03:00+4св699297 0.1 1009309
06:00+4ссв689180 0.1 1009337
09:00+4ссв688996 0.0 1008402
12:00+4ссв578786 0.0 1008447
15:00+4ссв5679100 0.1 1007478
18:00+3ссв6688100 0.2 1007446
21:00+3ссв6786100 0.1 1007438
28 сентября, ср
ср2800:00+3ссв8886100 0.3 1007640
03:00+3ссв888199 0.1 1007719
06:00+3ссв7780100 0.2 1008689
09:00+3ссв6778100 0.1 1008630
12:00+3с6778100 0.3 1008742
15:00+3с6778100 0.1 1008717
18:00+3ссв6776100 0.3 1009792
21:00+3с6675100 0.1 1009768
29 сентября, чт
чт2900:00+3с6777100 0.3 1009937
03:00+3с6777100 0.1 1009776
06:00+3с8890100 0.3 1009495
09:00+3с4489100 0.2 1009228
12:00+4с5684100 0.3 1009275
15:00+3с91092100 0.2 1010570
18:00+3с81082100 0.2 1010804
21:00+3ссз81084100 0.1 1010717
30 сентября, пт
пт3000:00+3ссз81085100 0.3 1011779
03:00+3ссз81082100 0.3 1012833
06:00+3ссз8979100 0.3 1013830
09:00+3ссз7975100 0.1 1014962
12:00+3сз7976100 0.1 1015748
15:00+3сз888077 0.1 1016594
18:00+3сз668152 0.1 1017430
21:00+2сз458217 0.0 1018422